Regional Weather Roundup
Issued by NWS Charleston, SC

Current Version | Previous Version | Graphics & Text | Print | Product List | Glossary On
Versions: 1 2 3 4 5 6 7 8 9 10 11 12 13 14 15 16 17 18 19 20 21 22 23 24 25 26 27 28 29 30 31 32 33 34 35 36 37 38 39 40 41 42 43 44 45 46 47 48 49 50
000
ASUS42 KCHS 090627
RWRCHS

REGIONAL WEATHER ROUNDUP
NATIONAL WEATHER SERVICE CHARLESTON SC
100 AM EST FRI DEC 09 2016

NOTE: "FAIR" INDICATES FEW OR NO CLOUDS BELOW 12,000 FEET WITH NO
SIGNIFICANT WEATHER AND/OR OBSTRUCTIONS TO VISIBILITY.

NOT ALL STATIONS ARE QUALITY CONTROLLED. USE DATA WITH CAUTION...
ESPECIALLY DEWPOINT OBSERVATIONS.

SCZ027-030-031-034>040-042>050-090700-
...SOUTHEAST SOUTH CAROLINA...

CITY           SKY/WX    TMP DP  RH WIND       PRES   REMARKS
N CHARLESTON   MOCLDY    45  31  58 NW8       30.27R
6HR MIN TEMP:  45; 6HR MAX TEMP:  56;

WATERFRONT PRK   N/A     50  38  63 NW5       30.25R
MOUNT PLEASANT FAIR      46  34  61 NW5       30.27R
JOHNS ISLAND   FAIR      46  34  61 NW6       30.27R
PINOPOLIS        N/A     48  34  57 N15       30.18R
MONCKS CORNER  FAIR      45  28  53 W3        30.27R
SUMMERVILLE    FAIR      43  32  65 CALM      30.29R
BEAUFORT MCAS  CLOUDY    47  35  63 NW8       30.29R
6HR MIN TEMP:  47; 6HR MAX TEMP:  57;

BEAUFORT ARPT  FAIR      46  34  61 NW12      30.28S
HILTON HEAD IS PTCLDY    48  34  57 VRB7G13   30.29R
WALTERBORO     PTCLDY    43  32  65 NW5       30.29S
ALLENDALE      FAIR      39  32  75 CALM      30.29S

...SOUTHERN MIDLANDS AND PEE DEE...

CITY           SKY/WX    TMP DP  RH WIND       PRES   REMARKS
GEORGETOWN     NOT AVBL
KINGSTREE      FAIR      39  30  70 CALM      30.27S
ORANGEBURG     CLEAR     41  27  57 NW3       30.29R
6HR MIN TEMP:  41; 6HR MAX TEMP:  51;

BARNWELL       NOT AVBL
AIKEN          FAIR      36  30  80 CALM      30.33R
MANNING        FAIR      37  23  56 CALM      30.27S
COLUMBIA       PTCLDY    42  20  41 NW6       30.29R
6HR MIN TEMP:  42; 6HR MAX TEMP:  50;

SUMTER         PTCLDY    40  23  49 NW8       30.25S WCI  35
6HR MIN TEMP:  40; 6HR MAX TEMP:  50; 6HR PCP: TRACE;

FLORENCE       PTCLDY    41  26  55 NW6       30.27R
6HR MIN TEMP:  40; 6HR MAX TEMP:  50;

MYRTLE BEACH   MOCLDY    43  30  61 NW6       30.26S
N MYRTLE BEACH PTCLDY    41  34  76 CALM      30.24R
6HR MIN TEMP:  39; 6HR MAX TEMP:  51;


$$

GAZ063-065-086>088-099>101-113>116-118-119-134>141-150-090700-
...SOUTHEAST GEORGIA...

CITY           SKY/WX    TMP DP  RH WIND       PRES   REMARKS
SAVANNAH ARPT  CLOUDY    46  26  45 NW10      30.30S
6HR MIN TEMP:  46; 6HR MAX TEMP:  56;

HUNTER AAF     CLOUDY    46  31  54 NW13      30.27S
6HR MIN TEMP:  46; 6HR MAX TEMP:  57;

FORT STEWART   MOCLDY    46  26  45 NW8       30.28S
6HR MIN TEMP:  46; 6HR MAX TEMP:  56;

STATESBORO     CLOUDY    41  31  66 NW6       30.31S
SYLVANIA       MOCLDY   N/A N/A N/A NW5       30.32S
CLAXTON        FAIR      43  30  61 W6        30.32S

...CSRA...CENTRAL AND FAR SOUTHEAST GEORGIA...

CITY           SKY/WX    TMP DP  RH WIND       PRES   REMARKS
THOMSON        PTCLDY    36  31  81 CALM      30.36S
AUGUSTA-BUSH   CLOUDY    42  22  44 NW9       30.32R
6HR MIN TEMP:  42; 6HR MAX TEMP:  50;

AUGUSTA-DANIEL MOCLDY    42  20  41 NW7       30.31S
SWAINSBORO     FAIR      36  28  75 CALM      30.33S
VIDALIA        PTCLDY    43  30  61 NW6       30.32F
EASTMAN        FAIR      39  13  34 CALM      30.36F
HAZLEHURST     FAIR      43  24  45 N6        30.31F
ALMA           MOCLDY    45  23  42 NW8       30.32S
6HR MIN TEMP:  45; 6HR MAX TEMP:  56;

WAYCROSS       CLOUDY    48  29  48 N10       30.31F
JESUP          FAIR      46  32  57 N10G16    30.30F
BAXLEY         FAIR      45  30  57 N6        30.31F
BRUNSWICK      MOCLDY    48  32  53 NW10      30.29F
SAINT SIMONS   CLOUDY    49  25  39 NW10      30.27F
6HR MIN TEMP:  49; 6HR MAX TEMP:  58;


$$

SCZ027-028-034-036>038-045-046-048>050-GAZ119-141-090700-
...LAKE AND SUPPLEMENTAL COASTAL OBSERVATIONS...

STATION/POSITION TIME  TEMP    WIND        PRES    WAVE   SWELL
                       AIR SEA DIR/SP/G            HT/PER HT/PER/DIR
                 (UTC) (F)     (DEG/KT/KT) (MB)    (FT/S) (FT/S/D)
WINYAH BAY       0530   46     350/  4     1024.0S
LAKE MURRAY      0550   40     350/  1/  5 1025.1R
ACE BASIN NERRS  0545   46     320/  1     1025.0S
FORT PULASKI     0600   47 62  330/ 11/ 14 1025.6
SAPELO ISLAND    0600   49     340/ 10     1026.0

$$

ANZ835-935-AMZ111-154-330-350-352-354-370-450-454-472-090700-
...C-MAN AND BUOY OBSERVATIONS...

STATION/POSITION TIME  TEMP    WIND        PRES    WAVE   SWELL
                       AIR SEA DIR/SP/G            HT/PER HT/PER/DIR
                 (UTC) (F)     (DEG/KT/KT) (MB)    (FT/S) (FT/S/D)
BUOY 41004       0550   56 74   10/ 17/ 21 1022.3R   4/ 6
BUOY 41008       0550   53 63  340/ 19/ 25 1024.4R   4/ 5   2/ 40/ 9
FOLLY BEACH CMAN 0600   49     330/  5/  7 1025.2R
CAPERS NEARSHORE 0608   50 61  360/ 12/ 16 1024.4R
FRIPP NEARSHORE  0608   51 62  340/ 16/ 19 1024.6R


STATION/POSITION TIME  TEMP    WIND        PRES    WAVE   SWELL
                       AIR SEA DIR/SP/G            HT/PER HT/PER/DIR
                 (UTC) (F)     (DEG/KT/KT) (MB)    (FT/S) (FT/S/D)
5E ST. MARYS GA  0600      65                N/A     4/ 5
FRYING PAN BUOY  0610   53 73  340/ 17/ 23 1022.6
BUOY 41025       0550   51 76  340/ 21/ 25 1020.2R   5/ 5   2/ 70/10
CAPE LOOKOUT NC  0600   47     320/ 18/ 22 1021.6R
BUOY 41002       0550   68 74  350/ 21/ 25 1017.2F   6/ 6   2/ 30/ 8
BUOY 41010       NOT AVBL
ST AUGUSTINE FL  0600   56 66  340/ 14/ 16 1024.9F


$$




USA.gov is the U.S. government's official web portal to all federal, state and local government web resources and services.